Location: Mitford
(51.2012°N, 114.5253°W)
Time: 03:30:57
(UTC+00:00)

ISS - Visible Passes

Search period start: 25 August 2019 00:00
Search period end: 04 September 2019 00:00
Orbit: 410 x 421 km, 51.6° (Epoch: 25 August)

Date Brightness Start Highest point End Pass type
(mag) Time Alt. Az. Time Alt. Az. Time Alt. Az.
29 Aug -2.0 12:07:41 10° SSW 12:10:30 25° SSE 12:13:19 10° E visible
30 Aug -1.6 11:19:51 11° S 11:21:52 18° SE 11:24:12 10° E visible
31 Aug -1.2 10:33:04 12° SE 10:33:16 12° SE 10:34:35 10° ESE visible
31 Aug -3.1 12:06:08 10° SW 12:09:22 46° SSE 12:12:36 10° E visible
01 Sep -2.6 11:19:07 22° SSW 11:20:38 33° SSE 11:23:41 10° E visible
02 Sep -2.1 10:32:13 23° SE 10:32:13 23° SE 10:34:40 10° E visible
02 Sep -3.7 12:05:06 11° WSW 12:08:18 76° SSE 12:11:40 10° E visible
03 Sep -0.8 09:45:18 11° ESE 09:45:18 11° ESE 09:45:26 10° E visible
03 Sep -3.6 11:18:10 32° SW 11:19:29 59° SSE 11:22:47 10° E visible
